Simultaneous Nadir Overpasses (SNOs) Predictions

Prediction of SNOs between NOAA-20 and METOP-B Satellite Orbit:

Table of predicted SNOs for the next 14.0 days since TLE Epoch: 6/5/2020
Index Date (NOAA-20) Time (NOAA-20) Lat,Lon (NOAA-20) SZA (NOAA-20 ) Date (METOP-B) Time (METOP-B) Lat,Lon (METOP-B) SZA (METOP-B ) Distance(km) Time Diff (sec)
1 06/06/2020 10:41:12 73.44, 10.09 50.89 06/06/2020 10:42:19 73.40, 12.70 50.71 82.91 67
2 06/06/2020 11:31:55 -73.39, 177.52 129.18 06/06/2020 11:33:03 -73.31, 179.82 129.38 73.82 68
3 06/06/2020 12:22:36 73.15, -14.63 50.55 06/06/2020 12:23:47 73.07, -13.35 50.41 41.89 71
4 06/06/2020 13:13:19 -73.09, 152.80 129.51 06/06/2020 13:14:30 -73.04, 153.89 129.63 35.87 71
5 06/06/2020 14:04:00 72.85, -39.37 50.22 06/06/2020 14:05:14 72.80, -39.28 50.15 6.28 74
6 06/06/2020 14:54:43 -72.80, 128.05 129.84 06/06/2020 14:55:56 -72.81, 128.08 129.84 1.66 73
7 06/06/2020 15:45:29 72.80, -64.65 50.17 06/06/2020 15:46:36 72.78, -64.66 50.13 3.12 67
8 06/06/2020 16:36:13 -72.81, 102.67 129.84 06/06/2020 16:37:18 -72.79, 102.69 129.87 1.81 65
9 06/06/2020 17:26:59 72.81, -90.04 50.17 06/06/2020 17:27:57 72.81, -89.94 50.15 3.10 58
10 06/06/2020 18:17:42 -72.76, 77.39 129.89 06/06/2020 18:18:40 -72.77, 77.31 129.89 2.76 58
11 06/06/2020 19:08:28 72.77,-115.32 50.11 06/06/2020 19:09:19 72.78,-115.33 50.12 1.89 51
12 06/06/2020 19:59:12 -72.77, 52.00 129.89 06/06/2020 20:00:01 -72.80, 52.02 129.88 3.44 49
13 06/06/2020 20:49:58 72.77,-140.70 50.11 06/06/2020 20:50:41 72.76,-140.71 50.09 1.37 43
14 06/06/2020 21:40:42 -72.77, 26.61 129.89 06/06/2020 21:41:23 -72.78, 26.64 129.90 0.96 41
15 06/06/2020 22:31:28 72.78,-166.09 50.11 06/06/2020 22:32:02 72.79,-165.99 50.11 3.40 34
16 06/06/2020 23:22:12 -72.78, 1.22 129.89 06/06/2020 23:22:45 -72.75, 1.25 129.93 3.13 33
17 06/07/2020 00:12:57 72.73, 168.63 50.06 06/07/2020 00:13:24 72.77, 168.62 50.09 3.61 27
18 06/07/2020 01:03:41 -72.74, -24.06 129.95 06/07/2020 01:04:07 -72.73, -24.13 129.95 2.43 26
19 06/07/2020 01:54:27 72.74, 143.24 50.06 06/07/2020 01:54:46 72.75, 143.23 50.06 0.45 19
20 06/07/2020 02:45:11 -72.74, -49.45 129.95 06/07/2020 02:45:28 -72.76, -49.41 129.94 2.30 17
21 06/07/2020 03:35:57 72.75, 117.85 50.06 06/07/2020 03:36:08 72.72, 117.85 50.03 2.76 11
22 06/07/2020 04:26:41 -72.75, -74.83 129.95 06/07/2020 04:26:50 -72.74, -74.80 129.96 1.67 9
23 06/07/2020 05:17:27 72.75, 92.46 50.06 06/07/2020 05:17:29 72.75, 92.57 50.05 3.45 2
24 06/07/2020 06:08:10 -72.70,-100.12 130.00 06/07/2020 06:08:12 -72.72,-100.18 129.99 2.55 2
25 06/07/2020 06:58:56 72.71, 67.18 50.01 06/07/2020 06:58:51 72.73, 67.18 50.03 2.18 5
26 06/07/2020 07:49:40 -72.71,-125.50 130.00 06/07/2020 07:49:34 -72.69,-125.57 130.01 2.79 6
27 06/07/2020 08:40:26 72.72, 41.79 50.01 06/07/2020 08:40:13 72.71, 41.80 50.00 1.01 13
28 06/07/2020 09:31:10 -72.72,-150.89 130.00 06/07/2020 09:30:55 -72.72,-150.85 129.99 1.55 15
29 06/07/2020 10:21:55 72.67, 16.51 49.95 06/07/2020 10:21:35 72.68, 16.41 49.97 3.61 20
30 06/07/2020 11:12:40 -72.72,-176.28 130.00 06/07/2020 11:12:17 -72.70,-176.23 130.02 2.89 23
31 06/07/2020 12:03:25 72.68, -8.88 49.95 06/07/2020 12:02:57 72.66, -8.98 49.95 3.67 28
32 06/07/2020 12:54:09 -72.68, 158.44 130.06 06/07/2020 12:53:39 -72.68, 158.38 130.05 1.90 30
33 06/07/2020 13:44:55 72.68, -34.27 49.95 06/07/2020 13:44:18 72.69, -34.26 49.97 0.80 37
34 06/07/2020 14:35:38 -72.68, 133.05 130.05 06/07/2020 14:34:59 -72.71, 133.10 130.03 2.95 39
35 06/07/2020 15:26:24 72.69, -59.65 49.95 06/07/2020 15:25:39 72.67, -59.64 49.94 2.47 45
36 06/07/2020 16:17:08 -72.69, 107.66 130.05 06/07/2020 16:16:21 -72.68, 107.71 130.05 1.82 47
37 06/07/2020 17:07:53 72.65, -84.94 49.90 06/07/2020 17:07:01 72.65, -85.03 49.91 3.03 52
38 06/07/2020 17:58:37 -72.65, 82.38 130.11 06/07/2020 17:57:43 -72.66, 82.33 130.08 2.46 54
39 06/07/2020 18:49:23 72.65,-110.32 49.90 06/07/2020 18:48:22 72.67,-110.31 49.93 2.54 61
40 06/07/2020 19:40:07 -72.65, 56.99 130.11 06/07/2020 19:39:05 -72.64, 56.94 130.10 2.10 62
41 06/07/2020 20:30:53 72.66,-135.71 49.90 06/07/2020 20:29:44 72.65,-135.69 49.91 0.90 69
42 06/07/2020 21:21:37 -72.66, 31.61 130.11 06/07/2020 21:20:26 -72.67, 31.66 130.09 2.22 71
43 06/07/2020 22:12:21 72.56,-160.89 49.79 06/07/2020 22:11:07 72.58,-161.18 49.84 9.88 74
44 06/07/2020 23:03:04 -72.51, 6.53 130.27 06/07/2020 23:01:50 -72.55, 6.07 130.20 15.61 74
45 06/07/2020 23:53:45 72.26, 174.33 49.46 06/07/2020 23:52:35 72.25, 172.82 49.54 51.08 70
46 06/08/2020 00:44:28 -72.21, -18.26 130.60 06/08/2020 00:43:18 -72.22, -19.91 130.50 56.35 70
47 06/08/2020 01:35:09 71.96, 149.53 49.13 06/08/2020 01:34:02 71.97, 146.95 49.29 88.96 67
48 06/08/2020 02:25:52 -71.91, -43.06 130.93 06/08/2020 02:24:46 -71.89, -45.88 130.79 97.57 66




NCC Satellite Simultaneous Nadir Overpasses (SNOs) Prediction Service
